Location: Ago
(8.4667°N, 4.4833°E)
Time: 10:59:04
(UTC+00:00)

Daily predictions for brighter satellites

Satellite Brightness Start Highest point End
(mag) Time Altitude Azimuth Time Altitude Azimuth Time Altitude Azimuth
Centaur D AC-29 3.6 17:02:45 10° W 17:07:32 54° NNW 17:31:33 10° ENE
Cosmos 2237 Rocket 3.1 17:51:49 10° NNW 17:57:16 55° WSW 18:02:45 10° S
Atlas Centaur 2 3.1 17:51:33 10° WNW 17:58:48 57° SW 18:04:34 10° SE
Helios 1A Rocket 3.4 17:58:13 10° SE 18:02:00 38° ENE 18:05:47 10° N
Cosmos 1939 Rocket 3.3 17:58:27 10° SSE 18:02:15 40° ENE 18:06:05 10° N
Okean-O 3.5 17:58:49 10° SE 18:02:36 28° ENE 18:06:21 10° NNE
CZ-2D R/B 3.8 18:07:37 10° SE 18:11:12 37° ENE 18:14:47 10° N
FengYun 1-2 T 4.5 18:05:47 10° S 18:11:17 76° WSW 18:16:49 10° NNW
GPS 2-17 Rocket1 3.2 18:08:21 10° WSW 18:12:58 78° NNW 18:17:40 10° ENE
Tsikada Rocket 4.1 18:08:00 10° N 18:13:56 51° E 18:19:56 10° SSE
Cosmos 1378 Rocket 3.6 18:09:54 10° N 18:14:04 50° E 18:18:14 10° SSE
GPS 2-14 Rocket1 3.5 18:13:57 10° W 18:17:29 40° SSW 18:21:04 10° SE
YAOGAN 1 3.4 18:14:26 10° SE 18:18:12 30° ENE 18:21:57 10° NNE
Cosmos 724 4.4 18:17:16 10° NNW 18:23:25 73° ENE 18:29:35 10° SSE
ASTRO E2 3.8 18:30:35 10° NNW 18:34:02 29° NNE 18:35:30 22° ENE
GP-B 4.3 18:30:51 10° NNW 18:35:04 46° W 18:39:19 10° SSW
Cosmos 1378 4.2 18:32:56 10° NNW 18:36:29 48° W 18:40:05 10° SSW
Palapa 6 Rocket 3.2 18:35:44 10° SW 18:39:16 41° SSE 18:40:35 30° ESE
Cosmos 372 Rocket 4.3 18:34:37 10° SSW 18:39:49 69° WNW 18:45:02 10° N
Cosmos 2151 Rocket 4.3 18:36:07 10° SSE 18:39:57 30° E 18:43:47 10° NNE
CZ-4 R/B 1.4 18:36:05 10° SSE 18:40:16 84° E 18:44:30 10° N
NATO 3D Rocket 3.7 18:35:39 10° SW 18:40:48 47° SSE 18:42:55 28° E
Cosmos 2150 Rocket 3.9 18:37:00 10° S 18:42:12 67° ESE 18:47:29 10° NNE
Okean 2 3.4 18:40:47 10° N 18:44:48 52° E 18:48:49 10° SSE
Cosmos 1072 Rocket 4.4 18:38:49 10° S 18:44:55 70° E 18:51:05 10° N
NOSS 3-4 (A) 3.6 18:42:51 10° S 18:48:28 42° ESE 18:51:39 23° NE
NOSS 3-4 (C) 3.6 18:43:00 10° S 18:48:34 41° ESE 18:51:35 24° ENE
Cosmos 2034 Rocket 4.2 18:45:04 10° SSE 18:51:06 46° E 18:57:07 10° NNE
Cosmos 1125 Rocket 3.6 18:48:06 10° S 18:53:12 51° ESE 18:58:19 10° NNE
Exosat Rocket 4.2 18:46:21 10° S 18:54:42 67° ESE 19:00:35 10° NNE
DMSP B5D2-2 4.1 18:52:36 10° NNE 18:57:42 52° ESE 19:02:48 10° S
Cosmos 2112 Rocket 3.9 19:01:51 10° N 19:07:01 63° ENE 19:08:19 47° SE
ATLAS 2AS CENTAUR R/B 2.9 19:02:40 10° S 19:10:03 62° ESE 19:16:53 14° NE
H-2A R/B 1.7 19:08:50 47° SE 19:10:09 69° ENE 19:15:02 10° N
Cosmos 1680 Rocket 3.4 19:05:36 10° NNW 19:10:50 87° ENE 19:13:43 28° SSE
ARGOS 3.5 19:12:07 44° NE 19:12:07 44° NE 19:16:19 10° N
Ariane H10+ 3.5 18:55:56 10° W 19:15:26 65° S 19:16:31 52° SE
Cosmos 1842 4.1 19:13:31 10° NNW 19:17:15 48° W 19:19:26 22° SSW
Cosmos 1975 Rocket 3.3 19:18:10 10° N 19:21:55 63° NW 19:21:55 63° NW
Cosmos 1844 4.2 19:17:50 10° SSW 19:23:30 59° WNW 19:29:07 10° N
Cosmos 2285 Rocket 4.0 19:23:08 10° SSW 19:29:24 80° WNW 19:35:42 10° N
CZ-2C R/B 4.1 19:28:51 10° S 19:33:26 41° W 19:38:13 10° NNW
CZ-2C R/B 3.6 19:29:49 10° N 19:35:11 49° WNW 19:40:34 10° SSW
Cosmos 1844 Rocket 4.3 19:30:41 10° SW 19:35:32 31° WNW 19:40:24 10° N
Milstar 3 Cent rocket 4.3 19:33:35 10° WNW 19:37:32 16° NNW 19:39:33 13° N
ARIANE 5 R/B 3.4 19:32:38 10° W 19:37:49 35° WSW 19:37:49 35° WSW
Ariane H10-3 3.8 19:11:41 10° W 19:57:18 76° S 19:57:47 74° SSE
Ariane H10 4.0 19:57:16 10° W 20:05:11 39° WSW 20:05:11 39° WSW
ARIANE 5 R/B 3.2 19:44:36 10° W 20:07:27 71° WSW 20:07:27 71° WSW
Intelsat 5-1 Rocket 4.4 20:11:23 10° W 20:24:10 43° NW 20:24:10 43° NW
H-10 deb 4.4 20:08:11 10° W 20:31:21 54° SW 20:31:21 54° SW
